Weather History for KVTN - October, 2011

Change the Weather History Date:

Saturday, October 29, 2011

  Actual Average Record
Temperature  
Mean Temperature 42 °F 43 °F  
Max Temperature 62 °F 57 °F 87 °F (1950)
Min Temperature 21 °F 29 °F 5 °F (1991)
Degree Days  
Heating Degree Days 23 22  
Month to date heating degree days 399 473  
Since 1 July heating degree days 583 658  
Cooling Degree Days 0 0  
Month to date cooling degree days 21 1  
Year to date cooling degree days 912 818  
Moisture  
Dew Point 23 °F    
Average Humidity 50    
Maximum Humidity 81    
Minimum Humidity 19    
Precipitation  
Precipitation 0.00 in 0.02 in 1.07 in (1927)
Month to date precipitation 1.71 1.19  
Year to date precipitation 21.35 18.94  
Snow  
Snow 0.00 in 0.10 in 4.90 in (1923)
Month to date snowfall 0.0 1.3  
Since 1 July snowfall 0.0 2.0  
Since 1 September snowfall 0.0 2.0  
Snow Depth 0.00 in    
Sea Level Pressure  
Sea Level Pressure 29.92 in    
Wind  
Wind Speed 6 mph (WNW)    
Max Wind Speed 28 mph    
Max Gust Speed 36 mph    
Visibility 10 miles    
Events      
T = Trace of Precipitation, MM = Missing Value Source: NWS Daily Summary

Daily Weather History Graph

Daily Weather History Graph

Search for Another Location

Airport or City:

Trip Planner

Search our weather history database for the weather conditions in past years. The results will help you decide how hot, cold, wet, or windy it might be!

Date:

Astronomy

Oct. 29, 2011 Rise Set
Actual Time 8:12 AM CDT 6:38 PM CDT
Civil Twilight 7:43 AM CDT 7:08 PM CDT
Nautical Twilight 7:09 AM CDT 7:41 PM CDT
Astronomical Twilight 6:36 AM CDT 8:14 PM CDT
Moon 11:40 AM CDT (10/29) 8:59 PM CDT (10/29)
Length of Visible Light 11h 24m
Length of Day
10h 26m
Waxing Crescent, 12% of the Moon is Illuminated
Oct 29
Waxing Crescent
Nov 2
First Quarter
Nov 10
Full
Nov 18
Last Quarter
Nov 25
New

Hourly Weather History & Observations

Time (CDT) Temp. Windchill Dew Point Humidity Pressure Visibility Wind Dir Wind Speed Gust Speed Precip Events Conditions
12:52 AM 33.8 °F - 21.2 °F 60% 30.05 in 10.0 mi Calm Calm - N/A   Clear
1:52 AM 33.1 °F - 21.9 °F 64% 30.06 in 10.0 mi Calm Calm - N/A   Clear
2:52 AM 28.9 °F - 21.0 °F 72% 30.04 in 10.0 mi Calm Calm - N/A   Clear
3:52 AM 28.0 °F - 21.9 °F 78% 30.00 in 10.0 mi Calm Calm - N/A   Clear
4:52 AM 26.6 °F - 19.4 °F 74% 29.93 in 10.0 mi Calm Calm - N/A   Clear
5:52 AM 26.1 °F - 21.9 °F 84% 29.96 in 10.0 mi Calm Calm - N/A   Clear
6:52 AM 30.0 °F - 23.0 °F 75% 29.93 in 10.0 mi Calm Calm - N/A   Clear
7:52 AM 26.1 °F - 21.9 °F 84% 29.94 in 10.0 mi Calm Calm - N/A   Clear
8:52 AM 26.1 °F - 21.0 °F 81% 29.94 in 10.0 mi Calm Calm - N/A   Clear
9:52 AM 35.1 °F - 27.0 °F 72% 29.90 in 10.0 mi Calm Calm - N/A   Clear
10:52 AM 45.0 °F 43.5 °F 25.0 °F 46% 29.87 in 10.0 mi WSW 3.5 mph - N/A   Clear
11:52 AM 55.9 °F - 21.9 °F 27% 29.82 in 10.0 mi SW 6.9 mph - N/A   Clear
12:52 PM 60.1 °F - 18.0 °F 20% 29.81 in 10.0 mi WNW 9.2 mph - N/A   Clear
1:52 PM 60.1 °F - 18.0 °F 20% 29.78 in 10.0 mi WNW 6.9 mph - N/A   Partly Cloudy
2:52 PM 60.1 °F - 18.0 °F 20% 29.78 in 10.0 mi NW 3.5 mph - N/A   Scattered Clouds
3:52 PM 61.0 °F - 18.0 °F 19% 29.78 in 10.0 mi NW 5.8 mph - N/A   Overcast
4:52 PM 60.1 °F - 21.9 °F 23% 29.83 in 10.0 mi NNW 10.4 mph - N/A   Mostly Cloudy
5:52 PM 57.0 °F - 23.0 °F 27% 29.86 in 10.0 mi NNW 8.1 mph - N/A   Mostly Cloudy
6:52 PM 53.1 °F - 26.1 °F 35% 29.88 in 10.0 mi NNW 5.8 mph - N/A   Scattered Clouds
7:52 PM 51.1 °F - 25.0 °F 36% 29.92 in 10.0 mi NW 9.2 mph - N/A   Overcast
8:52 PM 53.1 °F - 25.0 °F 34% 29.98 in 10.0 mi NW 13.8 mph 23.0 mph N/A   Overcast
9:52 PM 51.1 °F - 33.1 °F 50% 30.00 in 10.0 mi West 16.1 mph 26.5 mph N/A   Mostly Cloudy
10:52 PM 48.0 °F - 30.9 °F 52% 30.01 in 10.0 mi WNW 10.4 mph - N/A   Scattered Clouds
11:52 PM 44.1 °F 39.0 °F 30.9 °F 60% 30.01 in 10.0 mi NW 9.2 mph - N/A   Clear